www.pogodaiklimat.ru

Погода и климат >> Архив погоды >> Россия >> Хабаровский край >> Хабаровск


АРХИВ ПОГОДЫ в Хабаровске

Время (UTC), дата Ветер
(напр.,м/с)
 
Видим.   Явления Облачность Т
(С)
Тd
(С)
f
(%)
Тe
(С)
Тes
(С)
Комфортность P
(гПа)
Po
(гПа)
Тmin
(С)
Tmax
(С)
R
(мм)
R24
(мм)
S
(см)
09 12.12 ЮЗ 5 10 км ясно -15.7 -21.0 64 -25 -25 по сезону 1025.5 1016.2 -12.8
12 12.12 ЮЗ 4 10 км ясно -17.0 -21.7 67 -25 -25 по сезону 1026.0 1016.5
15 12.12 ЮЗ 3 10 км ясно -18.4 -22.7 69 -26 -26 по сезону 1025.1 1015.8
18 12.12 Ю 1 10 км ясно -19.6 -22.7 76 -23 -23 по сезону 1024.8 1015.4
21 12.12 штиль 0 10 км ясно -21.9 -24.8 77 -22 -22 по сезону 1024.8 1015.1 -22.1
00 13.12 ЮЗ 2 10 км 3/0
[Ci fib]
-19.3 -22.6 75 -25 -25 по сезону 1024.9 1015.5 -22.8
03 13.12 ЮЗ 4 10 км 3/0
[Ci fib]
-14.8 -22.2 53 -23 -21 по сезону 1023.9 1014.8
06 13.12 ЮЗ 3 10 км ясно -14.4 -22.0 52 -21 -21 по сезону 1023.5 1014.1
09 13.12 З 3 10 км ясно -17.5 -22.0 68 -25 -25 по сезону 1024.5 1015.2 -13.7
12 13.12 З 3 10 км ясно -18.6 -22.6 71 -26 -26 по сезону 1025.2 1015.7
15 13.12 ЮЗ 4 10 км ясно -21.0 -24.2 75 -30 -30 прохладно 1025.3 1015.9
18 13.12 ЮЗ 3 10 км ясно -20.1 -23.6 74 -28 -28 по сезону 1026.1 1016.5
21 13.12 ЮЗ 3 10 км ясно -21.3 -25.0 72 -29 -29 по сезону 1027.1 1017.4 -21.9
00 14.12 ЮЗ 3 10 км ясно -20.5 -24.7 69 -28 -28 по сезону 1028.6 1019.0 -22.0
03 14.12 ЮЗ 8-11
{10}
10 км ясно -16.7 -23.3 57 -28 -28 по сезону 1028.2 1018.7
06 14.12 ЮЗ 8-12
{13}
10 км ясно -15.4 -22.4 55 -26 -26 прохладно 1027.6 1018.1
09 14.12 ЮЗ 7
{13}
10 км ясно -16.3 -22.4 59 -27 -27 по сезону 1028.0 1018.5 -15.3
12 14.12 ЮЗ 8
{12}
10 км ясно -15.5 -22.0 57 -27 -27 по сезону 1027.9 1018.4
15 14.12 ЮЗ 9 10 км 3/0
[Ac trans]
-15.3 -21.7 58 -27 -27 по сезону 1027.3 1017.8
18 14.12 З 7 10 км 1/0
[Ac trans]
-15.2 -20.6 63 -26 -26 по сезону 1026.8 1017.3
21 14.12 З 8 10 км 3/0
[Ac trans]
-15.5 -20.4 66 -27 -27 по сезону 1025.8 1016.4 -16.4
00 15.12 ЮЗ 7 10 км ясно -14.9 -20.3 63 -25 -25 по сезону 1025.5 1016.3 -16.6
03 15.12 З 8-12
{13}
10 км 5/0
[Ci fib]
-10.6 -19.8 47 -20 -20 по сезону 1024.2 1014.9
06 15.12 ЮЗ 7
{12}
10 км 9/0
[Ci fib]
-9.5 -18.0 50 -18 -18 по сезону 1022.1 1013.1
09 15.12 Ю 2 9000 м дым 10/0
[Ac trans Cs]
-12.4 -18.4 61 -17 -17 по сезону 1021.1 1011.8 -9.4
12 15.12 Ю 2 10 км 9/0
[Ac trans Ci fib]
-12.7 -18.6 61 -17 -17 тепло 1019.9 1010.8
15 15.12 Ю 4 10 км 10/0
[Ac und]
-11.9 -17.8 61 -19 -19 по сезону 1016.6 1008.1
18 15.12 Ю 3 10 км 10/3 1000 м
[Cb cap Ac As]
-10.9 -17.3 59 -17 -17 тепло 1015.0 1005.8
21 15.12 Ю 2 4100 м слабый ливневой снег 10/6 930 м
[Cb cap Ac As]
-10.6 -12.5 86 -15 -15 тепло 1013.0 1004.1 -13.8 0.2
00 16.12 Ю 1 10 км слабый ливневой снег 10/6 720 м
[Cb cap Ac As]
-10.9 -12.7 87 -13 -13 тепло 1012.6 1003.4
03 16.12 ЮЗ 4 10 км слабый ливневой снег 9/4 960 м
[Cb cap Ac trans]
-9.6 -13.2 75 -16 -16 тепло 1011.9 1003.0
06 16.12 ЮЗ 4 10 км {ливн. осадки} 4/0
[Ci fib]
-8.2 -14.4 61 -15 -15 по сезону 1011.2 1002.1
09 16.12 ЮЗ 2 10 км 4/0
[Ci fib]
-11.8 -15.9 72 -16 -16 тепло 1011.0 1001.8 -7.8 0.0
12 16.12 З 4 10 км 3/0
[Ci fib]
-12.5 -16.1 74 -20 -20 по сезону 1010.4 1001.2
15 16.12 З 3 8000 м дым 4/0
[Ci fib]
-16.2 -18.8 80 -23 -23 по сезону 1009.6 1000.3
18 16.12 З 5 8000 м дым 8/0
[Ac trans Ci fib]
-13.8 -16.9 77 -22 -22 по сезону 1008.9 999.7
21 16.12 З 5 10 км 9/0
[Ac trans Ci fib]
-13.7 -17.8 71 -22 -22 по сезону 1008.9 999.7 -17.1
00 17.12 Ю 2 10 км дымка 9/4 1140 м
[Sc Ac trans]
-15.1 -18.0 78 -20 -20 по сезону 1009.1 1000.1
03 17.12 З 5 10 км 9/3 600 м
[Cb cap Ac trans Ci fib]
-10.8 -15.5 68 -19 -18 по сезону 1008.3 999.2
06 17.12 З 5 10 км 9/5 1000 м
[Cb cap Ac trans]
-10.0 -14.1 72 -18 -18 по сезону 1007.0 998.1
09 17.12 З 4 10 км слабый ливневой снег 10/6 1050 м
[Cb cap As op]
-10.8 -13.7 79 -18 -18 по сезону 1007.7 998.6 -9.5 0.3
12 17.12 З 5 10 км дым {ливн. осадки} 5/0
[Ac trans]
-13.9 -16.6 80 -22 -22 по сезону 1006.9 997.9
15 17.12 Ю 3 10 км 8/4 1500 м
[Sc Ac trans]
-14.3 -16.9 81 -21 -21 по сезону 1006.1 996.9
18 17.12 З 6 10 км слабый ливневой снег 9/6 840 м
[Cb cap Ac trans]
-13.3 -15.5 83 -22 -22 по сезону 1005.3 996.4
21 17.12 З 5 10 км {ливн. осадки} 4/0
[Ac trans]
-15.8 -19.3 74 -25 -25 по сезону 1004.7 995.6 -17.2 0.0
00 18.12 ЮЗ 9-12
{13}
10 км {ливн. осадки} 4/0
[Ac trans]
-16.3 -20.1 72 -28 -28 по сезону 1005.4 996.1
03 18.12 З 10-12
{14}
10 км 4/0
[Ci fib]
-13.6 -18.8 65 -25 -25 по сезону 1004.5 995.3
06 18.12 З 8-11
{15}
10 км ясно -12.8 -19.3 58 -23 -23 по сезону 1004.8 995.6
09 18.12 З 7
{14}
10 км ясно -14.3 -19.9 62 -24 -24 по сезону 1005.9 996.7 -12.5
12 18.12 З 7-10
{14}
10 км 4/0
[Ac trans]
-14.5 -19.4 66 -25 -25 по сезону 1005.8 996.6
15 18.12 З 7
{10}
10 км 5/0
[Ac trans]
-14.7 -19.5 67 -25 -25 по сезону 1005.6 996.4
18 18.12 ЮЗ 7
{10}
10 км 8/0
[Ac trans]
-13.3 -18.2 67 -23 -23 по сезону 1003.6 994.4
21 18.12 З 8
{11}
10 км 9/3 1000 м
[Cb cap Ac trans]
-12.9 -17.0 71 -23 -23 по сезону 1001.8 992.6 -15.3
00 19.12 З 8
{11}
10 км 3/0
[Ac trans]
-13.9 -18.0 71 -24 -24 по сезону 1001.7 992.5
03 19.12 З 9-12
{16}
10 км 1/1 1000 м
[Sc]
-12.7 -20.9 50 -23 -23 по сезону 1001.5 992.3

 

Местоположение метеостанции Хабаровск (Хабаровский край, Россия): широта 48.52 долгота 135.10 высота над уровнем моря 76 м.

В архиве по умолчанию представлена погода в Хабаровске за последнюю неделю. Архивные данные за месяц целиком и за предыдущие месяцы, начиная с января 2011 года, Вы можете получить, выбрав интересующий диапазон дат из раскрывающегося списка и нажав кнопку "Ввод!".


*Определитесь, кто Вы:
робот инопланетянин человек

Внимание! Время в таблицах - всемирное. Для получения местного времени необходимо прибавить поправку, которая в Хабаровске равна 10 ч.

Смотрите также архив погоды в соседних городах и на ближайших метеорологических станциях:

Погода в Хабаровске АМС (Хабаровский край, Россия) (6 км)
Погода в Хабаровск Мосту (Хабаровский край, Россия) (6 км)
Погода в Хабаровске Аэр. Большой (Хабаровский край, Россия) (8 км)
Погода в Хабаровске 21 км (Хабаровский край, Россия) (19 км)
Погода в Князе-Волконском (Хабаровский край, Россия) (28 км)
Погода в Бычихе (Хабаровский край, Россия) (32 км)
Погода в Елабуге (Хабаровский край, Россия) (61 км)
Погода в Оборе (Хабаровский край, Россия) (62 км)
Погода в Георгиевке (Хабаровский край, Россия) (64 км)
Погода в Хоре (Хабаровский край, Россия) (73 км)

Пояснения к столбцам:

Ветер - указаны скорость ветра в м/с - средняя за 10 мин, порывы в срок и между сроками (в фигурных скобках) и направление, откуда дует ветер: С - северный, СВ - северо-восточный, В - восточный, ЮВ - юго-восточный, Ю - южный, ЮЗ - юго-западный, З - западный, СЗ - северо-западный.
Видимость - горизонтальная дальность видимости в метрах или километрах. При видимости от 1 до 10 км при отсутствии осадков обычно наблюдается дымка, при ухудшении видимости до 1 км и менее - туман. В сухую погоду видимость может ухудшаться дымом, пылью или мглою.
Явления - указаны атмосферные явления, наблюдавшиеся в срок или в последний час перед сроком; фигурными скобками обозначены явления, наблюдавшиеся между сроками (за 1-3 часа до срока); квадратными скобками обозначены град или гололедные отложения с указанием их диаметра в мм.
Облачность - указаны через наклонную черту общая и нижняя облачность в баллах и высота нижней границы облаков в метрах; квадратными скобками обозначены формы облаков: Ci - перистые, Cs - перисто-слоистые, Cc - перисто-кучевые, Ac - высококучевые, As - высокослоистые, Sc - слоисто-кучевые, Ns - слоисто-дождевые, Cu - кучевые, Cb - кучево-дождевые. Подробнее классификацию облаков см. в Атласе облаков (PDF).
T - Температура воздуха - температура, измеренная на высоте 2 м над землей.
Td - Температура точки росы - температура, при понижении до которой содержащийся в воздухе водяной пар достигнет насыщения.
f - Относительная влажность воздуха - влажноcть воздуха, измеренная на высоте 2 м над землей.
Te - Эффективная температура - температура, которую ощущает одетый по сезону человек в тени. Характеристика душности погоды. При расчете учитывается влияние влажности воздуха и скорости ветра на теплоощущения человека.
Tes - Эффективная температура на солнце - температура, которую ощущает человек, с поправкой на солнечный нагрев. Характеристика знойности погоды. Зависит от высоты солнца над горизонтом, облачности и скорости ветра. Ночью, в пасмурную погоду, а также при ветре 12 м/с и более поправка равна нулю.
P - Атмосферное давление - приведенное к уровню моря атмосферное давление.
Po - Атмосферное давление - измеренное на уровне метеостанции атмосферное давление.
Tmin - Минимальная температура - минимум температуры воздуха на высоте 2 м над землей.
Tmax - Максимальная температура - максимум температуры воздуха на высоте 2 м над землей.
R - Количество осадков - Количество выпавших осадков за период времени, мм. При наведении курсора мыши на число - период времени, за который выпало указанное количество осадков.
R24 - Количество осадков - Количество выпавших осадков за 24 часа, мм.
S - Снежный покров - Высота снежного покрова, см. При наведении курсора мыши на число - состояние снежного покрова и степень покрытия местности в баллах.